Time,TemperatureF,DewpointF,PressureIn,WindDirection,WindDirectionDegrees,WindSpeedMPH,WindSpeedGustMPH,Humidity,HourlyPrecipIn,Conditions,Clouds,dailyrainin,SoftwareType,DateUTC
2013-03-06 00:00:00,28.4,27.4,29.80,NW,326,1.0,6.0,96,0.00,,,0.00,VWS V14.01,2013-03-06 05:00:00,
2013-03-06 00:05:00,28.4,27.4,29.80,North,349,2.0,6.0,96,0.00,,,0.00,VWS V14.01,2013-03-06 05:05:00,
2013-03-06 00:10:00,28.5,27.5,29.80,NW,315,2.0,6.0,96,0.00,,,0.00,VWS V14.01,2013-03-06 05:10:00,
2013-03-06 00:15:00,28.6,27.6,29.80,North,4,2.0,8.0,96,0.00,,,0.00,VWS V14.01,2013-03-06 05:15:00,
2013-03-06 00:20:00,28.7,27.7,29.80,NW,316,1.0,8.0,96,0.00,,,0.00,VWS V14.01,2013-03-06 05:20:00,
2013-03-06 00:25:00,28.7,27.7,29.81,NNW,346,3.0,8.0,96,0.00,,,0.00,VWS V14.01,2013-03-06 05:25:00,
2013-03-06 00:30:00,28.8,27.8,29.81,NNE,15,3.0,3.0,96,0.00,,,0.00,VWS V14.01,2013-03-06 05:30:00,
2013-03-06 00:35:00,28.8,27.8,29.81,WNW,294,6.0,6.0,96,0.00,,,0.00,VWS V14.01,2013-03-06 05:35:00,
2013-03-06 00:40:00,28.8,27.8,29.81,NW,317,1.0,10.0,96,0.00,,,0.00,VWS V14.01,2013-03-06 05:40:00,
2013-03-06 00:45:00,28.8,27.8,29.81,NNW,330,1.0,10.0,96,0.00,,,0.00,VWS V14.01,2013-03-06 05:45:00,
2013-03-06 00:50:00,28.7,27.7,29.81,NNW,335,1.0,10.0,96,0.00,,,0.00,VWS V14.01,2013-03-06 05:50:00,
2013-03-06 00:55:00,28.7,27.7,29.82,NW,326,2.0,10.0,96,0.00,,,0.00,VWS V14.01,2013-03-06 05:55:00,
2013-03-06 01:00:00,28.6,27.6,29.82,NNW,335,3.0,4.0,96,0.00,,,0.00,VWS V14.01,2013-03-06 06:00:00,
2013-03-06 01:05:00,28.6,27.6,29.82,North,356,6.0,6.0,96,0.00,,,0.00,VWS V14.01,2013-03-06 06:05:00,
2013-03-06 01:10:00,28.5,27.5,29.83,NNW,330,4.0,9.0,96,0.00,,,0.00,VWS V14.01,2013-03-06 06:10:00,
2013-03-06 01:15:00,28.3,27.3,29.83,North,354,3.0,9.0,96,0.00,,,0.00,VWS V14.01,2013-03-06 06:15:00,
2013-03-06 01:20:00,28.3,27.3,29.83,NW,321,3.0,9.0,96,0.00,,,0.00,VWS V14.01,2013-03-06 06:20:00,
2013-03-06 01:25:00,28.2,27.2,29.84,NNW,333,3.0,9.0,96,0.00,,,0.00,VWS V14.01,2013-03-06 06:25:00,
2013-03-06 01:30:00,28.2,27.2,29.84,NW,324,2.0,4.0,96,0.00,,,0.00,VWS V14.01,2013-03-06 06:30:00,
2013-03-06 01:35:00,28.1,26.9,29.84,NNE,31,3.0,7.0,95,0.00,,,0.00,VWS V14.01,2013-03-06 06:35:00,
2013-03-06 01:40:00,28.0,26.8,29.84,NNW,330,3.0,7.0,95,0.00,,,0.00,VWS V14.01,2013-03-06 06:40:00,
2013-03-06 01:45:00,27.9,26.7,29.85,NW,320,2.0,7.0,95,0.00,,,0.00,VWS V14.01,2013-03-06 06:45:00,
2013-03-06 01:50:00,27.9,26.7,29.85,NNE,13,2.0,7.0,95,0.00,,,0.00,VWS V14.01,2013-03-06 06:50:00,
2013-03-06 01:55:00,27.9,26.7,29.86,NNE,27,2.0,13.0,95,0.00,,,0.00,VWS V14.01,2013-03-06 06:55:00,
2013-03-06 02:00:00,27.8,26.6,29.86,NNW,334,4.0,11.0,95,0.00,,,0.00,VWS V14.01,2013-03-06 07:00:00,
2013-03-06 02:05:00,27.7,26.5,29.86,NNW,342,3.0,11.0,95,0.00,,,0.00,VWS V14.01,2013-03-06 07:05:00,
2013-03-06 02:10:00,27.5,26.3,29.86,NW,315,3.0,11.0,95,0.00,,,0.00,VWS V14.01,2013-03-06 07:10:00,
2013-03-06 02:15:00,27.5,26.3,29.87,North,11,3.0,11.0,95,0.00,,,0.00,VWS V14.01,2013-03-06 07:15:00,
2013-03-06 02:20:00,27.5,26.3,29.87,WNW,299,3.0,11.0,95,0.00,,,0.00,VWS V14.01,2013-03-06 07:20:00,
2013-03-06 02:25:00,27.5,26.3,29.87,NNE,20,6.0,11.0,95,0.00,,,0.00,VWS V14.01,2013-03-06 07:25:00,
2013-03-06 02:30:00,27.3,25.8,29.87,NNW,337,2.0,8.0,94,0.00,,,0.00,VWS V14.01,2013-03-06 07:30:00,
2013-03-06 02:35:00,27.1,25.6,29.88,North,354,3.0,8.0,94,0.00,,,0.00,VWS V14.01,2013-03-06 07:35:00,
2013-03-06 02:40:00,27.0,25.5,29.88,NW,323,2.0,8.0,94,0.00,,,0.00,VWS V14.01,2013-03-06 07:40:00,
2013-03-06 02:45:00,27.0,25.5,29.88,NW,305,5.0,9.0,94,0.00,,,0.00,VWS V14.01,2013-03-06 07:45:00,
2013-03-06 02:50:00,27.0,25.5,29.88,NW,321,3.0,9.0,94,0.00,,,0.00,VWS V14.01,2013-03-06 07:50:00,
2013-03-06 02:55:00,26.9,25.4,29.88,NNE,22,5.0,9.0,94,0.00,,,0.00,VWS V14.01,2013-03-06 07:55:00,
2013-03-06 03:00:00,26.9,25.4,29.88,NNE,26,4.0,8.0,94,0.00,,,0.00,VWS V14.01,2013-03-06 08:00:00,
2013-03-06 03:05:00,26.9,25.4,29.89,NNW,347,2.0,8.0,94,0.00,,,0.00,VWS V14.01,2013-03-06 08:05:00,
2013-03-06 03:10:00,26.9,25.4,29.89,NNW,347,3.0,12.0,94,0.00,,,0.00,VWS V14.01,2013-03-06 08:10:00,
2013-03-06 03:15:00,26.9,25.7,29.89,NNW,339,2.0,12.0,95,0.00,,,0.00,VWS V14.01,2013-03-06 08:15:00,
2013-03-06 03:20:00,26.9,25.7,29.89,NNW,340,6.0,12.0,95,0.00,,,0.00,VWS V14.01,2013-03-06 08:20:00,
2013-03-06 03:25:00,27.0,25.5,29.89,NNW,338,4.0,12.0,94,0.00,,,0.00,VWS V14.01,2013-03-06 08:25:00,
2013-03-06 03:30:00,27.0,25.5,29.90,NW,315,3.0,5.0,94,0.00,,,0.00,VWS V14.01,2013-03-06 08:30:00,
2013-03-06 03:35:00,27.0,25.5,29.90,NW,309,3.0,7.0,94,0.00,,,0.00,VWS V14.01,2013-03-06 08:35:00,
2013-03-06 03:40:00,27.0,25.5,29.90,NW,304,2.0,5.0,94,0.00,,,0.00,VWS V14.01,2013-03-06 08:40:00,
2013-03-06 03:45:00,27.0,25.5,29.90,WNW,297,4.0,7.0,94,0.00,,,0.00,VWS V14.01,2013-03-06 08:45:00,
2013-03-06 03:50:00,26.9,25.4,29.91,NNW,333,2.0,7.0,94,0.00,,,0.00,VWS V14.01,2013-03-06 08:50:00,
2013-03-06 03:55:00,27.0,25.5,29.92,NNW,333,3.0,8.0,94,0.00,,,0.00,VWS V14.01,2013-03-06 08:55:00,
2013-03-06 04:00:00,27.0,25.5,29.92,NE,42,5.0,6.0,94,0.00,,,0.00,VWS V14.01,2013-03-06 09:00:00,
2013-03-06 04:05:00,27.0,25.5,29.92,NNW,343,2.0,3.0,94,0.00,,,0.00,VWS V14.01,2013-03-06 09:05:00,
2013-03-06 04:10:00,26.9,25.4,29.92,NW,323,2.0,5.0,94,0.00,,,0.00,VWS V14.01,2013-03-06 09:10:00,
2013-03-06 04:15:00,27.0,25.2,29.92,NNW,342,3.0,5.0,93,0.00,,,0.00,VWS V14.01,2013-03-06 09:15:00,
2013-03-06 04:20:00,27.0,25.2,29.92,NNW,340,4.0,5.0,93,0.00,,,0.00,VWS V14.01,2013-03-06 09:20:00,
2013-03-06 04:25:00,26.9,25.1,29.92,ESE,109,3.0,5.0,93,0.00,,,0.00,VWS V14.01,2013-03-06 09:25:00,
2013-03-06 04:30:00,26.9,25.1,29.93,NNW,329,3.0,3.0,93,0.00,,,0.00,VWS V14.01,2013-03-06 09:30:00,
2013-03-06 04:34:00,26.9,25.1,29.93,NNW,334,3.0,4.0,93,0.00,,,0.00,VWS V14.01,2013-03-06 09:34:00,
2013-03-06 04:39:00,26.9,25.1,29.93,NW,321,2.0,6.0,93,0.00,,,0.00,VWS V14.01,2013-03-06 09:39:00,
2013-03-06 04:44:00,26.9,25.1,29.93,NW,315,4.0,6.0,93,0.00,,,0.00,VWS V14.01,2013-03-06 09:44:00,
2013-03-06 04:49:00,26.9,25.1,29.93,NW,309,3.0,11.0,93,0.00,,,0.00,VWS V14.01,2013-03-06 09:49:00,
2013-03-06 04:54:00,26.8,25.0,29.94,NNW,332,4.0,11.0,93,0.00,,,0.00,VWS V14.01,2013-03-06 09:54:00,
2013-03-06 04:59:00,26.7,25.0,29.95,NW,307,4.0,5.0,93,0.00,,,0.00,VWS V14.01,2013-03-06 09:59:00,
2013-03-06 05:00:00,26.7,25.0,29.94,WNW,284,5.0,11.0,93,0.00,,,0.00,VWS V14.01,2013-03-06 10:00:00,
2013-03-06 05:08:00,26.7,25.0,29.95,NW,318,4.0,4.0,93,0.00,,,0.00,VWS V14.01,2013-03-06 10:08:00,
2013-03-06 22:30:00,30.0,28.2,30.28,WNW,288,4.0,7.0,93,0.03,,,0.03,VWS V14.01,2013-03-07 03:30:00,
2013-03-06 23:00:00,29.8,28.0,30.28,WNW,301,1.0,5.0,93,0.00,,,0.03,VWS V14.01,2013-03-07 04:00:00,
2013-03-06 23:14:00,30.0,28.2,30.28,NW,319,3.0,3.0,93,0.00,,,0.03,VWS V14.01,2013-03-07 04:14:00,
2013-03-06 23:19:00,30.0,28.2,30.28,NW,319,3.0,5.0,93,0.03,,,0.03,VWS V14.01,2013-03-07 04:19:00,
2013-03-06 23:24:00,29.9,28.1,30.28,West,274,2.0,5.0,93,0.03,,,0.03,VWS V14.01,2013-03-07 04:24:00,
2013-03-06 23:29:00,29.9,28.1,30.28,West,274,0.0,4.0,93,0.00,,,0.03,VWS V14.01,2013-03-07 04:29:00,
2013-03-06 23:30:00,29.8,28.0,30.28,WNW,301,1.0,5.0,93,0.00,,,0.00,VWS V14.01,2013-03-07 04:30:00,
2013-03-06 23:34:00,29.9,28.1,30.28,WNW,288,1.0,4.0,93,0.00,,,0.03,VWS V14.01,2013-03-07 04:34:00,
2013-03-06 23:39:00,29.9,28.1,30.28,WNW,290,1.0,4.0,93,0.00,,,0.03,VWS V14.01,2013-03-07 04:39:00,
2013-03-06 23:44:00,29.8,28.0,30.28,WNW,282,3.0,5.0,93,0.00,,,0.03,VWS V14.01,2013-03-07 04:44:00,
2013-03-06 23:49:00,29.8,28.0,30.28,West,276,3.0,5.0,93,0.00,,,0.03,VWS V14.01,2013-03-07 04:49:00,
2013-03-06 23:54:00,29.8,28.0,30.28,NW,321,1.0,5.0,93,0.00,,,0.03,weatherlink.com 1.10,2013-03-07 04:54:00,
2013-03-06 23:59:00,29.8,28.0,30.28,WNW,300,1.0,1.0,93,0.00,,,0.00,VWS V14.01,2013-03-07 04:59:00,